Tri-Cities, TN

3:57 PM EST on December 11, 2019 (GMT -0500)
Tri-Cities Regional Tennessee / Virginia

Weather History for KTRI - October, 2019

Change the Weather History Date:

Wednesday, October 30, 2019

  Actual Average Record
Temperature  
Mean Temperature 60 °F 52 °F  
Max Temperature 64 °F 65 °F 79 °F (1971)
Min Temperature 56 °F 39 °F 21 °F (1952)
Degree Days  
Heating Degree Days 5 13  
Month to date heating degree days 154 269  
Since 1 July heating degree days 154 322  
Cooling Degree Days 0 0  
Month to date cooling degree days 67 9  
Year to date cooling degree days 1452 977  
Growing Degree Days 10 (Base 50)    
Moisture  
Dew Point 58 °F    
Average Humidity 92    
Maximum Humidity 97    
Minimum Humidity 86    
Precipitation  
Precipitation 0.75 in 0.07 in 1.54 in (1949)
Month to date precipitation 5.55 2.02  
Year to date precipitation 47.16 34.46  
Snow  
Snow 0.00 in 0.00 in - ()
Month to date snowfall 0.0 0.1  
Since 1 July snowfall 0.0 0.1  
Since 1 September snowfall 0.0 0.1  
Snow Depth 0.00 in    
Sea Level Pressure  
Sea Level Pressure 30.04 in    
Wind  
Wind Speed 1 mph (ESE)    
Max Wind Speed 7 mph    
Max Gust Speed 10 mph    
Visibility 8 miles    
Events Rain    
T = Trace of Precipitation, MM = Missing Value Source: NWS Daily Summary

Daily Weather History Graph

Daily Weather History Graph

Search for Another Location

Airport or City:

Astronomy

Oct. 30, 2019 Rise Set
Actual Time 7:50 AM EDT 6:35 PM EDT
Civil Twilight 7:24 AM EDT 7:01 PM EDT
Nautical Twilight 6:53 AM EDT 7:32 PM EDT
Astronomical Twilight 6:23 AM EDT 8:02 PM EDT
Moon 10:29 AM EDT (10/30) 8:46 PM EDT (10/30)
Length of Visible Light 11h 37m
Length of Day
10h 44m
Waxing Crescent, 8% of the Moon is Illuminated
Oct 30
Waxing Crescent
Nov 4
First Quarter
Nov 12
Full
Nov 19
Last Quarter
Nov 26
New

Hourly Weather History & Observations

Time (EDT) Temp. Dew Point Humidity Pressure Visibility Wind Dir Wind Speed Gust Speed Precip Events Conditions
12:53 AM 57.9 °F 54.0 °F 87% 30.13 in 10.0 mi Calm Calm - N/A   Overcast
1:53 AM 55.9 °F 53.1 °F 90% 30.12 in 10.0 mi Calm Calm - N/A   Overcast
2:53 AM 57.0 °F 53.1 °F 87% 30.11 in 10.0 mi Calm Calm - N/A   Overcast
3:53 AM 57.0 °F 53.1 °F 87% 30.09 in 10.0 mi Calm Calm - N/A   Overcast
4:53 AM 57.0 °F 53.1 °F 87% 30.08 in 10.0 mi Calm Calm - N/A   Overcast
5:53 AM 57.0 °F 54.0 °F 89% 30.09 in 10.0 mi Calm Calm - N/A   Overcast
6:53 AM 57.9 °F 54.0 °F 87% 30.09 in 10.0 mi ENE 3.5 mph - N/A   Mostly Cloudy
7:53 AM 57.9 °F 54.0 °F 87% 30.12 in 10.0 mi Calm Calm - N/A   Mostly Cloudy
8:53 AM 59.0 °F 55.0 °F 87% 30.12 in 10.0 mi Calm Calm - 0.00 in Rain Light Rain
9:53 AM 60.1 °F 57.0 °F 90% 30.12 in 8.0 mi Calm Calm - 0.01 in Rain Light Rain
10:53 AM 61.0 °F 57.9 °F 90% 30.10 in 9.0 mi Calm Calm - 0.02 in Rain Light Rain
11:53 AM 61.0 °F 59.0 °F 93% 30.10 in 2.0 mi ESE 3.5 mph - 0.11 in Rain Heavy Rain
12:53 PM 62.1 °F 60.1 °F 93% 30.08 in 2.0 mi Calm Calm - 0.20 in Rain Light Rain
1:53 PM 63.0 °F 61.0 °F 93% 30.05 in 2.0 mi ESE 3.5 mph - 0.10 in Rain Rain
2:44 PM 64.0 °F 61.0 °F 90% 30.07 in 4.0 mi ESE 4.6 mph - 0.07 in Rain Light Rain
2:53 PM 64.0 °F 60.1 °F 87% 30.01 in 4.0 mi SE 4.6 mph - 0.07 in Rain Light Rain
3:53 PM 64.0 °F 60.1 °F 87% 29.99 in 4.0 mi ESE 4.6 mph - 0.03 in Rain Light Rain
4:53 PM 64.0 °F 61.0 °F 90% 29.97 in 10.0 mi Calm Calm - 0.06 in Rain Light Rain
5:53 PM 64.0 °F 61.0 °F 90% 29.95 in 3.0 mi Calm Calm - 0.02 in Rain Rain
6:53 PM 63.0 °F 61.0 °F 93% 29.96 in 10.0 mi Calm Calm - 0.09 in   Overcast
7:53 PM 63.0 °F 61.0 °F 93% 29.95 in 10.0 mi Calm Calm - N/A   Mostly Cloudy
8:53 PM 63.0 °F 61.0 °F 93% 29.94 in 10.0 mi Calm Calm - N/A   Mostly Cloudy
9:53 PM 63.0 °F 61.0 °F 93% 29.92 in 10.0 mi Calm Calm - 0.04 in   Mostly Cloudy
10:53 PM 62.1 °F 60.1 °F 93% 29.91 in 10.0 mi Calm Calm - N/A   Scattered Clouds
11:53 PM 63.0 °F 61.0 °F 93% 29.91 in 10.0 mi Calm Calm - N/A   Overcast